[[{"header":{"parameterUnit":"m.s-1","parameterCategory":1,"la1":30.2991,"la2":30.254,"lo1":-89.0895,"lo2":-89.0444,"dy":0.0017,"dx":0.0017,"nx":28,"ny":28,"refTime":"2024-03-26T03:00:00:Z","depth":0,"parameterNumber":2,"parameterNumberName":"U-component_of_WINDS"},"data":[0,0,0,0,0,0,0,0,0,0,0,0,0,0,0,0,0,0,0,0,0,0,0,0,0,0,0,0,0,0,0,0,0,0,0,0,0,0,0,0,0,0,0,0,0,0,0,0,0,0,0,0,0,0,0,0,0,0,1.0964,1.0963,0,1.0939,1.0939,1.0939,1.0913,1.0912,1.0912,1.0911,1.0885,1.0884,1.0884,0,0,0,0,0,0,0,0,0,0,0,0,0,1.0987,1.0987,1.0964,1.0963,1.0963,1.0939,1.0939,1.0938,1.0913,1.0912,1.0912,1.0911,1.0885,1.0884,1.0884,0,0,0,0,0,0,0,0,0,0,0,0,0,1.0971,1.0987,1.0964,1.0947,1.0946,1.0939,1.0939,1.0938,1.0913,1.0912,1.0912,1.0911,1.0885,1.0884,1.0884,1.0891,0,0,1.0882,1.0882,0,0,0,0,0,0,0,0,1.0972,1.097,1.095,1.0948,1.0947,1.0928,1.0937,1.0922,1.0913,1.0925,1.0911,1.0911,1.0899,1.0898,1.0894,1.089,1.0889,1.0882,1.0882,1.0881,1.0881,0,0,0,0,0,0,0,1.0973,1.0971,1.0954,1.095,1.0948,1.0941,1.0938,1.0934,1.0916,1.0924,1.0922,1.092,1.0898,1.0895,1.0893,1.0888,1.0882,1.0881,1.0881,1.0881,1.0889,1.0889,0,0,0,0,0,0,1.0977,1.0972,1.0955,1.0953,1.0958,1.0941,1.0938,1.0935,1.0916,1.0912,1.092,1.0919,1.0896,1.0894,1.0892,1.0899,1.0881,1.0881,1.0881,1.0888,1.0889,1.0889,0,0,0,0,0,0,1.0978,1.0976,1.0956,1.0962,1.0959,1.0941,1.0938,1.0935,1.0931,1.0913,1.0909,1.092,1.0896,1.0893,1.0892,1.0898,1.0881,1.088,1.0888,1.0888,1.0889,1.0914,0,0,0,0,0,0,1.0979,1.0976,1.0979,1.0963,1.0959,1.0956,1.0938,1.0934,1.093,1.0928,1.0911,1.0908,1.0895,1.0893,1.0891,1.0897,1.088,1.0887,1.0888,1.0889,1.0913,1.0916,1.0918,0,0,0,0,0,1.098,1.0986,1.0979,1.0977,1.0962,1.0956,1.0954,1.0939,1.0931,1.0933,1.0922,1.0909,1.0898,1.0893,1.0891,1.0897,1.0886,1.0888,1.0889,1.0911,1.0915,1.0918,0,0,0,0,0,0,1.1003,1.0984,1.0976,1.0978,1.0969,1.0952,1.0954,1.0944,1.0936,1.0934,1.0916,1.0912,1.0913,1.0905,1.0899,1.0903,1.089,1.0891,1.0908,1.0912,1.0914,1.0916,1.0879,0,0,0,0,0,1.1009,1.1006,1.0989,1.0993,1.0989,1.0973,1.0969,1.0959,1.0949,1.0945,1.0933,1.0923,1.0918,1.0914,1.0908,1.0912,1.0907,1.0915,1.0918,1.092,1.0921,1.0922,1.0925,1.0894,1.0894,1.0893,0,0,1.102,1.1009,1.1009,1.0997,1.0989,1.0986,1.097,1.0967,1.0965,1.0944,1.0942,1.0933,1.0921,1.0922,1.0922,1.0916,1.0929,1.0922,1.0924,1.0923,1.0924,1.0927,1.0929,1.0894,1.0894,1.0894,0,0,1.1039,1.1031,1.1033,1.1025,1.1014,1.1003,1.1004,1.0989,1.0982,1.098,1.0964,1.0961,1.0952,1.0944,1.0939,1.0956,1.0944,1.0955,1.097,1.0971,1.0974,1.0976,1.0981,1.0984,1.0956,1.0956,1.0956,0,1.1054,1.105,1.1035,1.1034,1.1029,1.1012,1.1013,1.1007,1.0993,1.099,1.0983,1.0972,1.0962,1.0962,1.0966,1.0962,1.0962,1.0956,1.0975,1.0976,1.0978,1.0984,1.0986,1.0957,1.0957,1.0957,1.0957,0,1.1069,1.1067,1.107,1.1058,1.1054,1.1054,1.1039,1.1037,1.1027,1.1017,1.1015,1.1004,1.0995,1.0994,1.0984,1.0992,1.0988,1.0978,1.0965,1.0983,1.0987,1.0989,1.0959,1.0959,1.0958,1.0958,0,0,1.1101,1.1082,1.1084,1.1078,1.1065,1.1062,1.1062,1.1054,1.1052,1.1044,1.1043,1.1036,1.1027,1.1021,1.101,1.1012,1.1026,1.1002,1.1001,1.1006,1.1034,1.1041,1.1044,1.1019,1.1019,1.1019,1.1035,0,1.1118,1.1116,1.1103,1.1105,1.1103,1.1086,1.1086,1.1077,1.1068,1.1064,1.1054,1.105,1.1038,1.1035,1.1036,1.1024,1.1031,1.1023,1.1017,1.1017,1.102,1.1046,1.1054,1.1069,1.1037,1.1037,1.1037,0,1.1136,1.113,1.1132,1.1119,1.1117,1.1117,1.1109,1.1106,1.1096,1.1089,1.1083,1.1071,1.107,1.1059,1.1056,1.1051,1.1048,1.1042,1.1042,1.104,1.1028,1.1045,1.1074,1.1076,1.104,1.104,1.104,0,1.1159,1.1151,1.1151,1.1147,1.1132,1.1132,1.1126,1.1116,1.1112,1.1105,1.1102,1.1095,1.1091,1.1086,1.1072,1.1065,1.1071,1.1059,1.1065,1.1066,1.1066,1.1066,1.1095,1.1066,1.1066,1.1066,1.1066,0,1.1178,1.1179,1.1161,1.1161,1.1163,1.1148,1.115,1.1142,1.1133,1.1131,1.1117,1.1115,1.1098,1.1094,1.1083,1.1083,1.1081,1.1076,1.1073,1.1076,1.1077,1.1073,1.1072,1.1066,1.1066,1.1066,1.1066,0,1.1203,1.1191,1.119,1.1176,1.1173,1.1174,1.1162,1.1162,1.1152,1.115,1.1149,1.1134,1.1129,1.1115,1.1106,1.1099,1.1102,1.1097,1.1105,1.1103,1.111,1.111,1.1137,1.1139,1.1109,1.111,1.111,0,1.1215,1.1216,1.1203,1.1201,1.1195,1.1192,1.1189,1.1175,1.1171,1.1161,1.1161,1.1156,1.115,1.1143,1.1131,1.1125,1.1119,1.1129,1.1118,1.1122,1.1118,1.1118,1.1118,1.1131,1.1131,1.1132,1.1132,0,1.1239,1.1233,1.1229,1.1223,1.1219,1.1213,1.1207,1.1206,1.119,1.1187,1.1182,1.1178,1.117,1.1164,1.1156,1.1149,1.1138,1.1136,1.1137,1.114,1.1145,1.1142,1.1111,1.1135,1.1135,1.1134,1.1134,1.1134,1.1257,1.1258,1.1249,1.1244,1.1238,1.1233,1.1232,1.1223,1.1219,1.1211,1.1203,1.1199,1.119,1.1178,1.1172,1.1168,1.1162,1.1164,1.1164,1.1164,1.1166,1.1147,1.1167,1.1167,1.1166,1.1166,1.1166,0,1.128,1.1273,1.127,1.1261,1.1258,1.1249,1.1241,1.1239,1.1236,1.1229,1.1224,1.1219,1.1213,1.1201,1.1195,1.1194,1.1189,1.1193,1.1193,1.1191,1.1172,1.1172,1.1198,1.1198,1.1198,1.1198,1.1198,1.1198,1.1291,1.1291,1.1284,1.1281,1.1275,1.1271,1.1268,1.1262,1.1256,1.1251,1.1247,1.124,1.123,1.1223,1.1218,1.1215,1.1213,1.1218,1.1213,1.1195,1.1192,1.119,1.1189,1.1218,1.1218,1.1232,1.1232,1.1233]},{"header":{"parameterUnit":"m.s-1","parameterCategory":1,"la1":30.2991,"la2":30.254,"lo1":-89.0895,"lo2":-89.0444,"dy":0.0017,"dx":0.0017,"nx":28,"ny":28,"refTime":"2024-03-26T03:00:00:Z","depth":0,"parameterNumber":3,"parameterNumberName":"V-component_of_WINDS"},"data":[0,0,0,0,0,0,0,0,0,0,0,0,0,0,0,0,0,0,0,0,0,0,0,0,0,0,0,0,0,0,0,0,0,0,0,0,0,0,0,0,0,0,0,0,0,0,0,0,0,0,0,0,0,0,0,0,0,0,-3.4069,-3.4071,0,-3.4221,-3.4223,-3.4225,-3.4221,-3.4219,-3.4216,-3.4215,-3.4368,-3.4374,-3.4379,0,0,0,0,0,0,0,0,0,0,0,0,0,-3.3775,-3.378,-3.4069,-3.4071,-3.4073,-3.4221,-3.4223,-3.4225,-3.4221,-3.4218,-3.4216,-3.4214,-3.4366,-3.4373,-3.438,0,0,0,0,0,0,0,0,0,0,0,0,0,-3.3912,-3.3782,-3.4069,-3.4089,-3.4092,-3.4221,-3.4223,-3.4226,-3.4222,-3.4218,-3.4215,-3.4212,-3.4363,-3.4372,-3.4381,-3.4499,0,0,-3.4409,-3.4412,0,0,0,0,0,0,0,0,-3.3904,-3.3923,-3.4084,-3.4088,-3.4092,-3.4199,-3.4175,-3.4317,-3.4222,-3.4172,-3.4214,-3.4211,-3.4314,-3.4327,-3.4362,-3.4506,-3.4513,-3.4409,-3.4415,-3.4419,-3.4421,0,0,0,0,0,0,0,-3.3895,-3.3916,-3.4129,-3.4086,-3.4091,-3.409,-3.4106,-3.4202,-3.4259,-3.4176,-3.4177,-3.4195,-3.4315,-3.4353,-3.4366,-3.4515,-3.4409,-3.4417,-3.4423,-3.4426,-3.4766,-3.4769,0,0,0,0,0,0,-3.3881,-3.3908,-3.4124,-3.4134,-3.3988,-3.4098,-3.4116,-3.4168,-3.4258,-3.4268,-3.4197,-3.4194,-3.4339,-3.4355,-3.4371,-3.4517,-3.4419,-3.4427,-3.4432,-3.4762,-3.4767,-3.477,0,0,0,0,0,0,-3.3875,-3.3901,-3.4118,-3.4021,-3.4049,-3.4106,-3.4164,-3.4172,-3.421,-3.4273,-3.4283,-3.4226,-3.4338,-3.4358,-3.4468,-3.4522,-3.4431,-3.4439,-3.4758,-3.4764,-3.4769,-3.4808,0,0,0,0,0,0,-3.3867,-3.3898,-3.3944,-3.4022,-3.4054,-3.4213,-3.4168,-3.4177,-3.4226,-3.4223,-3.4303,-3.4313,-3.4337,-3.4454,-3.4477,-3.4533,-3.4446,-3.4753,-3.476,-3.4767,-3.4802,-3.4814,-3.4824,0,0,0,0,0,-3.3856,-3.3948,-3.3946,-3.3972,-3.4112,-3.4216,-3.4234,-3.4261,-3.423,-3.4277,-3.4318,-3.431,-3.4512,-3.4466,-3.4491,-3.455,-3.475,-3.4758,-3.4766,-3.4797,-3.4812,-3.4824,0,0,0,0,0,0,-3.3872,-3.3958,-3.3957,-3.4077,-3.414,-3.4215,-3.4274,-3.4275,-3.4346,-3.4341,-3.437,-3.4388,-3.4498,-3.4535,-3.4481,-3.467,-3.4627,-3.4641,-3.4642,-3.4657,-3.4667,-3.4656,-3.4454,0,0,0,0,0,-3.389,-3.3968,-3.4038,-3.4137,-3.4169,-3.4216,-3.4262,-3.4278,-3.4343,-3.4369,-3.4418,-3.4481,-3.4559,-3.461,-3.4685,-3.4807,-3.4825,-3.4861,-3.4872,-3.4881,-3.4892,-3.4962,-3.4979,-3.4797,-3.4797,-3.4797,0,0,-3.3927,-3.3984,-3.403,-3.4142,-3.4192,-3.4272,-3.4238,-3.4324,-3.4384,-3.4382,-3.4489,-3.4527,-3.46,-3.4717,-3.4771,-3.4751,-3.4946,-3.4891,-3.4897,-3.4904,-3.4972,-3.4989,-3.5004,-3.4803,-3.4802,-3.4801,0,0,-3.4036,-3.4086,-3.4175,-3.4226,-3.4303,-3.4335,-3.4356,-3.4433,-3.4459,-3.4567,-3.4568,-3.4639,-3.4772,-3.4825,-3.4869,-3.5,-3.4997,-3.5024,-3.5082,-3.5149,-3.5164,-3.5177,-3.5225,-3.5242,-3.5035,-3.5035,-3.5035,0,-3.4072,-3.4193,-3.422,-3.4307,-3.4357,-3.4361,-3.4452,-3.45,-3.4597,-3.4631,-3.4608,-3.4777,-3.4826,-3.4957,-3.4989,-3.5024,-3.505,-3.5015,-3.516,-3.5173,-3.5185,-3.5232,-3.525,-3.5038,-3.5038,-3.5037,-3.5037,0,-3.4234,-3.4318,-3.4381,-3.4477,-3.4533,-3.4621,-3.4663,-3.4717,-3.4728,-3.4762,-3.4873,-3.4932,-3.502,-3.5052,-3.5063,-3.5185,-3.5171,-3.5153,-3.5111,-3.5205,-3.5249,-3.5267,-3.5042,-3.5041,-3.504,-3.5039,0,0,-3.4356,-3.4468,-3.449,-3.4535,-3.4621,-3.4687,-3.4776,-3.4864,-3.491,-3.4977,-3.5053,-3.5167,-3.5153,-3.5203,-3.5219,-3.5278,-3.5381,-3.5254,-3.5256,-3.5277,-3.5522,-3.5535,-3.5556,-3.5379,-3.5383,-3.5386,-3.5516,0,-3.4475,-3.4634,-3.4662,-3.4801,-3.488,-3.4886,-3.4964,-3.5026,-3.506,-3.5132,-3.517,-3.5251,-3.5224,-3.5255,-3.5314,-3.5356,-3.5431,-3.5347,-3.5451,-3.5454,-3.5434,-3.5578,-3.5593,-3.5713,-3.5534,-3.5537,-3.5539,0,-3.4634,-3.4708,-3.4855,-3.4933,-3.4968,-3.5037,-3.5121,-3.519,-3.526,-3.5281,-3.5339,-3.5349,-3.5442,-3.5396,-3.5525,-3.5468,-3.5512,-3.5539,-3.5545,-3.5556,-3.5503,-3.5595,-3.5752,-3.5771,-3.5566,-3.5564,-3.5562,0,-3.471,-3.4846,-3.4952,-3.499,-3.5083,-3.5133,-3.5174,-3.5241,-3.5293,-3.5366,-3.54,-3.5482,-3.5528,-3.5592,-3.5624,-3.5587,-3.5752,-3.5708,-3.5773,-3.5773,-3.5808,-3.5805,-3.5976,-3.5835,-3.5834,-3.5834,-3.5834,0,-3.484,-3.4931,-3.4988,-3.5054,-3.5156,-3.5188,-3.5288,-3.5328,-3.5388,-3.5462,-3.5471,-3.554,-3.5579,-3.5654,-3.568,-3.5784,-3.5804,-3.5824,-3.583,-3.5824,-3.5822,-3.5854,-3.5847,-3.5839,-3.5838,-3.5837,-3.5836,0,-3.4942,-3.4984,-3.5101,-3.5181,-3.5203,-3.5275,-3.5343,-3.5408,-3.5443,-3.5536,-3.556,-3.5615,-3.5703,-3.5743,-3.5851,-3.5869,-3.5989,-3.5988,-3.5965,-3.5968,-3.6032,-3.6026,-3.6229,-3.6258,-3.6097,-3.6098,-3.6099,0,-3.5023,-3.5093,-3.5181,-3.5232,-3.5275,-3.5356,-3.541,-3.5445,-3.55,-3.5587,-3.5641,-3.573,-3.5804,-3.5945,-3.5995,-3.6078,-3.6081,-3.6146,-3.6093,-3.6086,-3.6084,-3.608,-3.6088,-3.6156,-3.6158,-3.6159,-3.616,0,-3.5162,-3.5181,-3.5258,-3.5344,-3.5408,-3.5476,-3.5543,-3.5584,-3.563,-3.5691,-3.5783,-3.584,-3.5953,-3.6042,-3.6129,-3.6171,-3.6174,-3.6176,-3.6196,-3.6191,-3.6176,-3.6187,-3.5993,-3.6172,-3.617,-3.617,-3.6169,-3.6168,-3.5257,-3.5321,-3.5394,-3.548,-3.5535,-3.5598,-3.5663,-3.5708,-3.5785,-3.588,-3.5896,-3.5994,-3.6065,-3.6183,-3.6228,-3.6306,-3.629,-3.6318,-3.6325,-3.6332,-3.6337,-3.6163,-3.6321,-3.6321,-3.6321,-3.6321,-3.632,0,-3.5398,-3.5446,-3.5526,-3.5621,-3.5689,-3.5687,-3.5762,-3.5819,-3.5906,-3.5972,-3.6045,-3.6151,-3.6238,-3.6296,-3.6384,-3.6435,-3.6439,-3.6457,-3.6454,-3.6464,-3.6345,-3.632,-3.6453,-3.6453,-3.6453,-3.6453,-3.6453,-3.6453,-3.548,-3.5588,-3.5615,-3.5751,-3.5798,-3.5896,-3.5939,-3.5998,-3.6051,-3.617,-3.6243,-3.628,-3.6344,-3.6437,-3.6517,-3.6532,-3.6564,-3.6584,-3.6598,-3.6486,-3.6472,-3.6459,-3.6436,-3.659,-3.6591,-3.6711,-3.6712,-3.6712]}]]